Location: Bois Neuf
(42.7667°N, 0.6333°E)
Time: 05:05:33
(UTC+00:00)

NPP - Pass Details

Date: 07 June 2020
Orbit: 826 x 828 km, 98.7° (Epoch: 14 July)

Event Time Altitude Azimuth Distance (km) Brightness Sun altitude
Rises 01:12:48 0° 20° (NNE) 3,377 8.4 -22.1°
Reaches altitude 10° 01:15:17 10° 26° (NNE) 2,439 7.2 -22.0°
Maximum altitude 01:20:27 45° 99° (E) 1,114 4.3 -21.6°
Enters shadow 01:22:36 30° 151° (SSE) 1,435 4.6 -21.5°
